Regional Weather Roundup
Issued by NWS

Home | Current Version | Previous Version | Graphics & Text | Print | Product List | Glossary On
Versions: 1 2 3 4 5 6 7 8 9 10 11 12 13 14 15 16 17 18 19 20 21 22 23 24 25 26 27 28 29 30 31 32 33 34 35 36 37 38 39 40 41 42 43 44 45 46 47 48 49 50
000
ASUS43 KMKX 051111
RWRWI

WISCONSIN REGIONAL WEATHER ROUNDUP
NATIONAL WEATHER SERVICE MILWAUKEE/SULLIVAN WI
600 AM CDT WED AUG 05 2015

NOTE: "FAIR" INDICATES FEW OR NO CLOUDS BELOW 12,000 FEET WITH NO
SIGNIFICANT WEATHER AND/OR OBSTRUCTIONS TO VISIBILITY.

WIZ001-002-006>008-014>016-023>028-051200-
NORTHWEST WISCONSIN

CITY           SKY/WX    TMP DP  RH WIND       PRES   REMARKS
SUPERIOR ARPT  FOG       44  44 100 CALM      30.10S VSB 1
ASHLAND        FOG       43  43 100 S3        30.11S VSB 1/2
HAYWARD        PTCLDY    46  44  93 N6        30.10S
SIREN          CLEAR     48  47  94 CALM      30.08S
CUMBERLAND     CLEAR     50  46  87 CALM      30.08S
RICE LAKE      FOG       50  49  95 N3        30.09S VSB 1/4
CHETEK         CLEAR     52  51  96 CALM      30.08S
LADYSMITH      CLEAR     51  49  94 CALM      30.10F
EAU CLAIRE     CLEAR     52  49  89 NE3       30.06S
MENOMONIE      CLEAR     55  52  90 CALM      30.06F
NEW RICHMOND   CLEAR     54  53  97 CALM      30.06F
OSCEOLA        CLEAR     56  56 100 CALM      30.09S
$$

WIZ003>005-009-010-017-018-051200-
NORTH CENTRAL WISCONSIN

CITY           SKY/WX    TMP DP  RH WIND       PRES   REMARKS
MANITOWISH WTR FOG       40  40 100 CALM      30.11R VSB<1/4
ARBOR VITAE    CLEAR     45  43  93 CALM      30.10S
WOODRUFF       CLEAR     45  43  93 CALM      30.10S
RHINELANDER    CLEAR     44  43  96 CALM      30.11S FOG
EAGLE RIVER    FOG       41  41 100 CALM      30.11R VSB 1/4
LAND O LAKES   FOG       39  39 100 CALM      30.12S VSB 1/2
PHILLIPS       CLEAR     47  46  97 CALM      30.10R
TOMAHAWK       CLEAR     49  47  95 CALM      30.11R
MEDFORD        CLEAR     49  48  99 NE5       30.08S
MERRILL        NOT AVBL
$$

WIZ029-030-035-036-043>047-051200-
CENTRAL WISCONSIN

CITY           SKY/WX    TMP DP  RH WIND       PRES   REMARKS
WAUSAU         MOCLDY    58  53  84 CALM      30.07R
MOSINEE        MOCLDY    55  55 100 CALM      30.09R
MARSHFIELD     PTCLDY    56  51  84 E6        30.07S
STEVENS POINT  PTCLDY    53  52  97 NE3       30.07S
WAUPACA        CLEAR     55  55  97 CALM      30.07S
WAUTOMA        CLEAR     55  55 100 CALM      30.07R
WISC RAPIDS    CLEAR     55  52  89 CALM      30.07S
CAMP DOUGLAS   FOG       48  48 100 CALM      30.05S VSB 1/4
$$

WIZ011>013-019>022-031-037>040-048>050-051200-
NORTHEAST WISCONSIN

CITY           SKY/WX    TMP DP  RH WIND       PRES   REMARKS
ANTIGO         PTCLDY    49  49  98 CALM      30.10R
SHAWANO        CLOUDY    60  56  87 NE6       30.08S
OCONTO         MOCLDY    54  54 100 N3        30.07S
STURGEON BAY   PTCLDY    57  50  77 NE6       30.09S
GREEN BAY      MOCLDY    59  57  93 N6        30.07R
MANITOWOC      CLOUDY    59  58  96 MISG      30.07R
APPLETON       PTCLDY    57  57 100 CALM      30.07R
CLINTONVILLE   CLOUDY    55  54  94 NE3       30.07R
OSHKOSH        PTCLDY    61  57  87 E5        30.05R
$$

WIZ032>034-041-042-053>061-051200-
SOUTHWEST WISCONSIN

CITY           SKY/WX    TMP DP  RH WIND       PRES   REMARKS
LA CROSSE      CLEAR     58  55  90 E3        30.05S
SPARTA         CLEAR     47  46  94 CALM      30.07R
VIROQUA        CLEAR     55  55 100 CALM      30.07R
BOSCOBEL       FOG       52  51  97 CALM      30.06S VSB 1/4
PRAIRIE DU CHI CLOUDY    55  53  94 E5        30.05F
PLATTEVILLE    CLEAR     56  54  92 CALM      30.05F
$$

WIZ056-057-062-063-064-067-068-051200-
SOUTH CENTRAL WISCONSIN

CITY           SKY/WX    TMP DP  RH WIND       PRES   REMARKS
REEDSBURG      CLEAR     53  52  97 CALM      30.06S
BARABOO/DELLS  PTCLDY    54  51  90 CALM      30.06S
LONE ROCK      FOG       51  50  96 CALM      30.07S VSB 1/4
MINERAL POINT  CLEAR     59  54  82 CALM      30.06F
MADISON        MOCLDY    55  52  89 CALM      30.05S
MIDDLETON      CLEAR     53  52  96 CALM      30.06S
WATERTOWN      CLEAR     53  53 100 CALM      30.05S
MONROE         CLEAR     63  52  67 NW6       30.06S
JANESVILLE     PTCLDY    55  54  94 CALM      30.05S
$$

WIZ051-052-058>065-066-070>072-051200-
SOUTHEAST WISCONSIN

CITY           SKY/WX    TMP DP  RH WIND       PRES   REMARKS
MILWAUKEE      PTCLDY    63  55  75 W3        30.05R
WAUKESHA       CLEAR     55  54  94 CALM      30.06S
MILWAUKEE/TIMM CLEAR     57  52  82 CALM      30.06R
RACINE         CLEAR     60  55  83 NW5       30.06R
BURLINGTON     CLEAR     50  50  97 CALM      30.05S
KENOSHA        CLEAR     56  54  93 W5        30.05R
FOND DU LAC    CLEAR     54  53  97 CALM      30.06R
SHEBOYGAN      CLEAR     58  56  93 NE6       30.05R
WEST BEND      CLEAR     54  52  94 CALM      30.06R
JUNEAU         CLEAR     55  53  93 CALM      30.07R
$$

LSZ147-162-051200-
LAKE SUPERIOR

STATION/POSITION TIME  TEMP    WIND        PRES    WAVE
                       AIR SEA DIR/SP/G            HT/PER
                 (UTC) (F)     (DEG/KT/KT) (MB)    (FT/S)
W MID LAKE BUOY  1050   56 56  300/  4/  4 1019.0R   0
DEVILS ISLAND    1100   58      CALM  /  1 1019.4R
PORT WING        1040   50     140/  2/  4 1019.6R
SAXON HARBOR     1040   49     180/  3/  6 1019.0R
$$

LMZ867-665-643>646-051200-
LAKE MICHIGAN

STATION/POSITION TIME  TEMP    WIND        PRES    WAVE
                       AIR SEA DIR/SP/G            HT/PER
                 (UTC) (F)     (DEG/KT/KT) (MB)    (FT/S)
CHAMBERS ISLAND  1000   62     340/  7/  9 1018.3R
S GREEN BAY BUOY 1100   64 71   20/ 12/ 16 1019.4
N MID LAKE BUOY  1050   62 68  330/ 12/ 14 1017.9R   1/ 3
NORTHPORT PIER   1100   62     340/  8/ 11 1018.6R
SISTER BAY       1018   58      50/  4/  7   N/A
ALGOMA LAKESHORE 1042           10/  5/  7   N/A
KEWAUNEE LAKESHO 1000   60      20/  4/  6 1017.3R
SHEBOYGAN LAKESH 1100   60     350/ 11/ 11 1017.9R
PORT WASHINGTON  1000   63     290/  5/  7 1017.3S
ATWATER BUOY     1100   59 54  270/  4/  4 1018.7R
MILWAUKEE LAKESH 1000   65     290/  2/  3   N/A
KENOSHA   LAKESH 1100   63     260/  9/ 11 1017.3R
$$

TC  - TEMPERATURE IN CELSIUS
VSB - VISIBILITY IN STATUTE MILES
WCI - WIND CHILL INDEX
HX  - HEAT INDEX



USA.gov is the U.S. government's official web portal to all federal, state and local government web resources and services.